[[{"header":{"parameterUnit":"m.s-1","parameterCategory":1,"la1":30.2991,"la2":30.254,"lo1":-89.0895,"lo2":-89.0444,"dy":0.0017,"dx":0.0017,"nx":28,"ny":28,"refTime":"2024-05-08T21:00:00:Z","depth":0,"parameterNumber":2,"parameterNumberName":"U-component_of_WINDS"},"data":[0,0,0,0,0,0,0,0,0,0,0,0,0,0,0,0,0,0,0,0,0,0,0,0,0,0,0,0,0,0,0,0,0,0,0,0,0,0,0,0,0,0,0,0,0,0,0,0,0,0,0,0,0,0,0,0,0,0,3.0527,3.0528,0,3.0646,3.0648,3.0649,3.0635,3.0633,3.0631,3.0629,3.0754,3.0759,3.0764,0,0,0,0,0,0,0,0,0,0,0,0,0,3.0289,3.0294,3.0527,3.0528,3.053,3.0646,3.0648,3.0649,3.0635,3.0633,3.063,3.0628,3.0752,3.0758,3.0764,0,0,0,0,0,0,0,0,0,0,0,0,0,3.0399,3.0295,3.0526,3.0537,3.0539,3.0646,3.0648,3.065,3.0636,3.0633,3.063,3.0627,3.075,3.0757,3.0765,3.087,0,0,3.0788,3.0792,0,0,0,0,0,0,0,0,3.0393,3.0408,3.0534,3.0536,3.0539,3.0623,3.061,3.0724,3.0636,3.0599,3.0629,3.0626,3.0713,3.0723,3.0752,3.0876,3.0881,3.0789,3.0794,3.0797,3.0799,0,0,0,0,0,0,0,3.0385,3.0403,3.0574,3.0535,3.0539,3.0536,3.0549,3.0631,3.0671,3.0602,3.0601,3.0615,3.0713,3.0745,3.0755,3.0883,3.0789,3.0796,3.08,3.0803,3.1101,3.1104,0,0,0,0,0,0,3.0375,3.0396,3.057,3.0578,3.0457,3.0543,3.0557,3.0599,3.067,3.0678,3.0618,3.0614,3.0733,3.0746,3.0759,3.0888,3.0797,3.0804,3.0809,3.1098,3.1102,3.1105,0,0,0,0,0,0,3.037,3.039,3.0565,3.0487,3.0509,3.055,3.0597,3.0602,3.0634,3.0681,3.0689,3.0642,3.0731,3.0748,3.0843,3.0892,3.0808,3.0815,3.1094,3.1099,3.1104,3.1145,0,0,0,0,0,0,3.0363,3.0389,3.0428,3.0488,3.0513,3.0646,3.06,3.0607,3.0647,3.0643,3.0706,3.0714,3.073,3.0831,3.085,3.0901,3.0821,3.109,3.1096,3.1102,3.1139,3.1151,3.116,0,0,0,0,0,3.0355,3.0435,3.043,3.0451,3.0563,3.0649,3.0664,3.068,3.065,3.0691,3.0722,3.0712,3.0883,3.0841,3.0863,3.0916,3.1087,3.1094,3.1101,3.1135,3.1148,3.116,0,0,0,0,0,0,3.0381,3.0443,3.0438,3.0541,3.059,3.0646,3.0698,3.0694,3.0753,3.0747,3.0766,3.078,3.0876,3.0905,3.0857,3.1022,3.0981,3.0993,3.0999,3.1012,3.1023,3.1014,3.0827,0,0,0,0,0,3.0398,3.0462,3.0513,3.0599,3.0624,3.0657,3.0695,3.0703,3.0755,3.0776,3.0814,3.0865,3.093,3.0973,3.1036,3.1144,3.1158,3.1191,3.1201,3.121,3.122,3.128,3.1296,3.113,3.113,3.113,0,0,3.0436,3.0478,3.0517,3.0605,3.0644,3.071,3.0674,3.0746,3.0796,3.0787,3.0878,3.0908,3.0967,3.1068,3.1115,3.1096,3.1269,3.1219,3.1226,3.1231,3.1289,3.1305,3.1319,3.1135,3.1134,3.1133,0,0,3.0537,3.0575,3.0651,3.069,3.075,3.0772,3.079,3.0848,3.0867,3.0959,3.0954,3.1014,3.1126,3.1169,3.1205,3.1324,3.1317,3.1344,3.1399,3.1457,3.147,3.1482,3.1525,3.154,3.1354,3.1354,3.1354,0,3.0576,3.0675,3.069,3.0763,3.0802,3.0797,3.0875,3.0913,3.099,3.1018,3.0995,3.1137,3.1176,3.1288,3.1317,3.1346,3.1369,3.1337,3.1467,3.1479,3.149,3.1531,3.1548,3.1357,3.1357,3.1357,3.1356,0,3.072,3.0789,3.0843,3.0917,3.0963,3.1038,3.1066,3.111,3.1115,3.114,3.1234,3.1281,3.1354,3.1381,3.1387,3.1495,3.1481,3.1463,3.1422,3.1509,3.1548,3.1564,3.1361,3.136,3.1359,3.1359,0,0,3.0841,3.0923,3.0943,3.0977,3.1043,3.1097,3.1172,3.1242,3.1281,3.1335,3.1399,3.1494,3.1478,3.1519,3.153,3.1581,3.1673,3.1557,3.1558,3.1577,3.1796,3.1809,3.1827,3.1669,3.1672,3.1675,3.1791,0,3.0949,3.1081,3.1097,3.1215,3.1279,3.1276,3.1342,3.139,3.1415,3.1474,3.1503,3.157,3.1543,3.1568,3.1619,3.1651,3.1717,3.1643,3.173,3.1733,3.1715,3.1848,3.1862,3.1969,3.1806,3.1809,3.1811,0,3.1093,3.115,3.1274,3.1332,3.136,3.1418,3.1485,3.1541,3.1596,3.1611,3.1657,3.1662,3.1741,3.1697,3.1806,3.1755,3.1792,3.1813,3.1818,3.1827,3.1777,3.186,3.2004,3.202,3.1835,3.1833,3.1831,0,3.1169,3.1277,3.1366,3.1395,3.1464,3.1506,3.1537,3.1589,3.1631,3.1689,3.1717,3.1784,3.1821,3.1874,3.1896,3.1862,3.2005,3.1963,3.202,3.202,3.205,3.2048,3.2202,3.2074,3.2074,3.2073,3.2073,0,3.1288,3.1364,3.1401,3.1455,3.1541,3.156,3.1644,3.1674,3.1721,3.1781,3.1783,3.184,3.1867,3.1929,3.1947,3.2036,3.2052,3.2067,3.2071,3.2067,3.2065,3.2091,3.2084,3.2078,3.2077,3.2076,3.2075,0,3.1387,3.1415,3.1511,3.1569,3.1586,3.1646,3.1696,3.175,3.1775,3.1852,3.1871,3.1911,3.1984,3.2011,3.2101,3.2113,3.2215,3.2213,3.2196,3.2197,3.2253,3.2248,3.2429,3.2454,3.231,3.2311,3.2312,0,3.1461,3.152,3.1584,3.1625,3.1657,3.1722,3.1765,3.1787,3.1831,3.1899,3.1944,3.2017,3.2076,3.2193,3.223,3.2299,3.2298,3.2357,3.2309,3.2303,3.23,3.2296,3.2302,3.2366,3.2368,3.2369,3.237,0,3.159,3.1601,3.1662,3.1728,3.1779,3.1833,3.1884,3.1918,3.1948,3.1998,3.2072,3.2118,3.2209,3.2281,3.2352,3.2385,3.2383,3.2385,3.2402,3.2398,3.2386,3.2394,3.2221,3.2381,3.238,3.2379,3.2378,3.2378,3.1679,3.1731,3.1785,3.1853,3.1895,3.1943,3.1996,3.2028,3.209,3.2166,3.2175,3.2255,3.231,3.2404,3.2441,3.2504,3.2488,3.2513,3.2519,3.2525,3.2529,3.2376,3.2517,3.2517,3.2516,3.2516,3.2516,0,3.1808,3.1843,3.1906,3.1978,3.2032,3.2025,3.2083,3.2129,3.2199,3.225,3.2308,3.2394,3.2464,3.2507,3.2578,3.2621,3.2622,3.2639,3.2636,3.2644,3.2538,3.2517,3.2637,3.2637,3.2637,3.2637,3.2637,3.2637,3.1882,3.197,3.1987,3.2096,3.2131,3.2208,3.2242,3.2287,3.2328,3.2424,3.2482,3.251,3.2558,3.2633,3.2698,3.2709,3.2735,3.2753,3.2763,3.2664,3.2651,3.2639,3.2619,3.2759,3.2759,3.2863,3.2864,3.2865]},{"header":{"parameterUnit":"m.s-1","parameterCategory":1,"la1":30.2991,"la2":30.254,"lo1":-89.0895,"lo2":-89.0444,"dy":0.0017,"dx":0.0017,"nx":28,"ny":28,"refTime":"2024-05-08T21:00:00:Z","depth":0,"parameterNumber":3,"parameterNumberName":"V-component_of_WINDS"},"data":[0,0,0,0,0,0,0,0,0,0,0,0,0,0,0,0,0,0,0,0,0,0,0,0,0,0,0,0,0,0,0,0,0,0,0,0,0,0,0,0,0,0,0,0,0,0,0,0,0,0,0,0,0,0,0,0,0,0,0.3283,0.3284,0,0.3407,0.3409,0.341,0.3435,0.3434,0.3433,0.3432,0.3562,0.3567,0.3571,0,0,0,0,0,0,0,0,0,0,0,0,0,0.307,0.3073,0.3283,0.3285,0.3286,0.3407,0.3409,0.3411,0.3435,0.3434,0.3433,0.3431,0.3561,0.3566,0.3571,0,0,0,0,0,0,0,0,0,0,0,0,0,0.3175,0.3075,0.3283,0.3313,0.3317,0.3407,0.3409,0.3411,0.3435,0.3434,0.3432,0.3431,0.3559,0.3566,0.3572,0.3642,0,0,0.3592,0.3595,0,0,0,0,0,0,0,0,0.3169,0.3183,0.3307,0.3311,0.3315,0.3404,0.3381,0.3489,0.3436,0.339,0.3432,0.343,0.3511,0.3522,0.3548,0.3648,0.3654,0.3593,0.3597,0.36,0.3602,0,0,0,0,0,0,0,0.3162,0.3178,0.3332,0.3309,0.3314,0.3321,0.3334,0.3402,0.3458,0.3394,0.3396,0.341,0.3513,0.3542,0.3551,0.3656,0.3593,0.3599,0.3603,0.3605,0.3819,0.3821,0,0,0,0,0,0,0.3149,0.3171,0.3328,0.3336,0.3237,0.3326,0.3341,0.3377,0.3457,0.3468,0.3412,0.3411,0.3531,0.3544,0.3556,0.3643,0.36,0.3606,0.361,0.3817,0.3819,0.3821,0,0,0,0,0,0,0.3144,0.3162,0.3323,0.3254,0.3275,0.3331,0.3372,0.338,0.3409,0.347,0.348,0.343,0.3531,0.3547,0.362,0.3648,0.3609,0.3615,0.3815,0.3818,0.382,0.3817,0,0,0,0,0,0,0.3138,0.316,0.3187,0.3255,0.3279,0.3385,0.3373,0.3384,0.342,0.342,0.349,0.3501,0.3531,0.361,0.3627,0.3656,0.362,0.3813,0.3816,0.3819,0.3815,0.382,0.3823,0,0,0,0,0,0.313,0.3182,0.3188,0.3207,0.3313,0.3386,0.34,0.3433,0.3422,0.3449,0.3488,0.3498,0.3642,0.3618,0.3636,0.3668,0.3811,0.3815,0.3819,0.3813,0.3819,0.3823,0,0,0,0,0,0,0.3118,0.3192,0.3199,0.3275,0.3324,0.339,0.3426,0.3437,0.3492,0.349,0.3529,0.3545,0.3616,0.365,0.3621,0.374,0.3726,0.3734,0.3715,0.3721,0.3725,0.3716,0.3625,0,0,0,0,0,0.3124,0.3176,0.3238,0.3299,0.3323,0.337,0.3403,0.3424,0.3477,0.3498,0.3542,0.3594,0.3651,0.3688,0.3744,0.382,0.3836,0.3851,0.3855,0.3858,0.3865,0.3908,0.3915,0.3834,0.3834,0.3834,0,0,0.3137,0.3184,0.3214,0.3297,0.3338,0.3392,0.3387,0.3445,0.3485,0.3507,0.3579,0.3613,0.3673,0.3748,0.3784,0.3779,0.389,0.3863,0.3865,0.387,0.3912,0.392,0.3927,0.3837,0.3836,0.3836,0,0,0.3188,0.3229,0.3283,0.3324,0.3384,0.3415,0.3428,0.3493,0.3516,0.3588,0.3606,0.3655,0.3752,0.3794,0.3828,0.3894,0.3906,0.3912,0.3933,0.3974,0.398,0.3986,0.401,0.4018,0.3918,0.3918,0.3918,0,0.3198,0.3278,0.3311,0.3367,0.3403,0.3423,0.3479,0.3517,0.3594,0.3618,0.3611,0.3733,0.3775,0.386,0.3876,0.3903,0.392,0.3904,0.3977,0.3983,0.3989,0.4012,0.4021,0.3918,0.3918,0.3918,0.3918,0,0.3286,0.3342,0.3379,0.3451,0.3491,0.3547,0.3588,0.3625,0.3642,0.3674,0.3747,0.3798,0.3864,0.3886,0.3904,0.3974,0.3969,0.3968,0.3956,0.3996,0.4019,0.4028,0.3919,0.3918,0.3918,0.3918,0,0,0.3335,0.3422,0.3436,0.3468,0.3536,0.358,0.3637,0.3701,0.3732,0.3783,0.3832,0.3913,0.3913,0.3952,0.3975,0.4011,0.406,0.4007,0.4009,0.4015,0.414,0.414,0.415,0.4067,0.4069,0.4071,0.4135,0,0.3395,0.3496,0.3526,0.3611,0.3663,0.3683,0.3732,0.378,0.3811,0.386,0.3895,0.3952,0.3947,0.3971,0.4007,0.4046,0.4086,0.4042,0.4114,0.4117,0.4099,0.4162,0.4162,0.4221,0.4144,0.4146,0.4147,0,0.3478,0.353,0.362,0.3681,0.3704,0.3747,0.3808,0.3854,0.3909,0.3929,0.3971,0.3991,0.4051,0.4034,0.4119,0.4088,0.412,0.4143,0.4146,0.4155,0.4135,0.4173,0.424,0.4249,0.4161,0.416,0.4159,0,0.3505,0.3597,0.3662,0.369,0.3762,0.3792,0.3824,0.3877,0.3913,0.3966,0.399,0.4049,0.4082,0.4129,0.4164,0.4148,0.4245,0.4231,0.4264,0.4264,0.4285,0.4283,0.4359,0.4304,0.4304,0.4304,0.4303,0,0.3569,0.3623,0.3675,0.3716,0.3777,0.3811,0.3872,0.3904,0.3951,0.3999,0.402,0.4064,0.4108,0.4158,0.4186,0.4252,0.4267,0.4285,0.4292,0.4284,0.4281,0.4305,0.4303,0.4306,0.4305,0.4305,0.4305,0,0.3609,0.3646,0.3719,0.3781,0.3798,0.384,0.3894,0.3934,0.3965,0.4025,0.4042,0.4091,0.4152,0.4191,0.4269,0.4287,0.4359,0.4365,0.4341,0.4344,0.4375,0.4372,0.447,0.4484,0.4419,0.4419,0.442,0,0.3648,0.369,0.3756,0.3788,0.382,0.3873,0.3909,0.3944,0.3982,0.4046,0.4079,0.414,0.4191,0.4287,0.4331,0.439,0.4398,0.4428,0.4407,0.4397,0.4399,0.4396,0.44,0.4431,0.4432,0.4432,0.4433,0,0.3712,0.3728,0.3779,0.3837,0.3879,0.3926,0.3974,0.3999,0.4043,0.4084,0.4145,0.4184,0.4263,0.4324,0.4387,0.4421,0.4435,0.4439,0.445,0.4442,0.4426,0.4435,0.435,0.4437,0.4436,0.4436,0.4436,0.4436,0.3753,0.3791,0.3843,0.39,0.3938,0.3982,0.4023,0.4058,0.411,0.4175,0.4193,0.4257,0.431,0.4396,0.4431,0.4482,0.4479,0.4495,0.4499,0.4502,0.4503,0.4417,0.4494,0.4494,0.4494,0.4494,0.4494,0,0.3819,0.3853,0.3904,0.3969,0.4013,0.402,0.4073,0.411,0.4166,0.4213,0.4263,0.4333,0.4392,0.444,0.4501,0.4533,0.454,0.4548,0.4546,0.4554,0.4502,0.4487,0.454,0.454,0.454,0.454,0.454,0.454,0.3859,0.3924,0.3945,0.403,0.4064,0.4126,0.4155,0.4196,0.4234,0.4311,0.436,0.439,0.4438,0.4502,0.4557,0.457,0.4591,0.4597,0.4611,0.4562,0.4557,0.4552,0.4538,0.4602,0.4602,0.4659,0.4659,0.466]}]]